Rolla, MO

7:55 AM CDT on July 24, 2017 (GMT -0500)
Rolla National

Weather History for KVIH - April, 2013

Change the Weather History Date:

Saturday, April 6, 2013

  Actual Average Record
Temperature  
Mean Temperature 62 °F 52 °F  
Max Temperature 72 °F 64 °F 89 °F (1954)
Min Temperature 52 °F 41 °F 22 °F (1982)
Degree Days  
Heating Degree Days 3 13  
Month to date heating degree days 113 83  
Since 1 July heating degree days 4518 4487  
Cooling Degree Days 0 0  
Month to date cooling degree days 0 0  
Year to date cooling degree days 0 4  
Growing Degree Days 12 (Base 50)    
Moisture  
Dew Point 39 °F    
Average Humidity 48    
Maximum Humidity 62    
Minimum Humidity 34    
Precipitation  
Precipitation 0.00 in 0.13 in 0.91 in (1954)
Month to date precipitation 0.00 0.76  
Year to date precipitation 7.97 8.31  
Sea Level Pressure  
Sea Level Pressure 29.84 in    
Wind  
Wind Speed 15 mph (South)    
Max Wind Speed 29 mph    
Max Gust Speed 37 mph    
Visibility 10 miles    
Events      
T = Trace of Precipitation, MM = Missing Value Source: NWS Daily Summary

Daily Weather History Graph

Daily Weather History Graph

Search for Another Location

Airport or City:

Trip Planner

Search our weather history database for the weather conditions in past years. The results will help you decide how hot, cold, wet, or windy it might be!

Date:

Astronomy

Apr. 06, 2013 Rise Set
Actual Time 6:44 AM CDT 7:35 PM CDT
Civil Twilight 6:17 AM CDT 8:01 PM CDT
Nautical Twilight 5:45 AM CDT 8:33 PM CDT
Astronomical Twilight 5:13 AM CDT 9:06 PM CDT
Moon 4:24 AM CDT (4/6) 4:07 PM CDT (4/6)
Length of Visible Light 13h 44m
Length of Day
12h 50m
Waning Crescent, 15% of the Moon is Illuminated
Apr 6
Waning Crescent
Apr 10
New
Apr 18
First Quarter
Apr 25
Full
May 2
Last Quarter

Hourly Weather History & Observations

Time (CDT) Temp. Dew Point Humidity Pressure Visibility Wind Dir Wind Speed Gust Speed Precip Events Conditions
12:53 AM 53.1 °F 36.0 °F 52% 29.97 in 10.0 mi SSE 5.8 mph - N/A   Clear
1:53 AM 55.9 °F 34.0 °F 44% 29.96 in 10.0 mi South 13.8 mph - N/A   Clear
2:53 AM 55.9 °F 33.1 °F 42% 29.94 in 10.0 mi South 11.5 mph - N/A   Clear
3:53 AM 54.0 °F 33.1 °F 45% 29.94 in 10.0 mi South 10.4 mph - N/A   Clear
4:53 AM 53.1 °F 33.1 °F 47% 29.92 in 10.0 mi South 15.0 mph - N/A   Clear
5:53 AM 52.0 °F 33.1 °F 49% 29.91 in 10.0 mi SSE 10.4 mph - N/A   Clear
6:53 AM 52.0 °F 34.0 °F 50% 29.91 in 10.0 mi South 12.7 mph - N/A   Clear
7:53 AM 54.0 °F 34.0 °F 47% 29.93 in 10.0 mi South 15.0 mph 24.2 mph N/A   Clear
8:53 AM 57.0 °F 36.0 °F 45% 29.91 in 10.0 mi South 17.3 mph - N/A   Clear
9:53 AM 60.1 °F 37.0 °F 42% 29.88 in 10.0 mi South 21.9 mph 28.8 mph N/A   Clear
10:53 AM 64.9 °F 39.0 °F 39% 29.88 in 10.0 mi South 23.0 mph 29.9 mph N/A   Clear
11:53 AM 68.0 °F 39.9 °F 36% 29.85 in 10.0 mi SSW 27.6 mph 36.8 mph N/A   Clear
12:53 PM 66.9 °F 39.9 °F 37% 29.81 in 10.0 mi South 26.5 mph 32.2 mph N/A   Clear
1:53 PM 70.0 °F 41.0 °F 35% 29.78 in 10.0 mi South 19.6 mph 29.9 mph N/A   Clear
2:53 PM 70.0 °F 41.0 °F 35% 29.75 in 10.0 mi South 17.3 mph 21.9 mph N/A   Clear
3:53 PM 71.1 °F 41.0 °F 34% 29.73 in 10.0 mi SSW 19.6 mph 34.5 mph N/A   Clear
4:53 PM 71.1 °F 42.1 °F 35% 29.71 in 10.0 mi SSW 16.1 mph 28.8 mph N/A   Clear
5:53 PM 71.1 °F 41.0 °F 34% 29.72 in 10.0 mi South 21.9 mph 26.5 mph N/A   Clear
6:53 PM 68.0 °F 42.1 °F 39% 29.75 in 10.0 mi SW 10.4 mph - N/A   Clear
7:53 PM 63.0 °F 42.1 °F 46% 29.76 in 10.0 mi SW 9.2 mph - N/A   Clear
8:53 PM 64.0 °F 44.1 °F 48% 29.79 in 10.0 mi WSW 10.4 mph - N/A   Scattered Clouds
9:53 PM 59.0 °F 44.1 °F 58% 29.80 in 10.0 mi SSW 8.1 mph - N/A   Clear
10:53 PM 57.9 °F 44.1 °F 60% 29.80 in 10.0 mi SSW 6.9 mph - N/A   Clear
11:53 PM 57.0 °F 44.1 °F 62% 29.80 in 10.0 mi South 9.2 mph - N/A   Clear